Weather History for KBGR - March, 2014

Change the Weather History Date:

Saturday, March 29, 2014

  Actual Average Record
Temperature  
Mean Temperature 43 °F 35 °F  
Max Temperature 51 °F 45 °F 79 °F (1946)
Min Temperature 34 °F 26 °F 6 °F (1974)
Degree Days  
Heating Degree Days 22 30  
Month to date heating degree days 1241 1018  
Since 1 July heating degree days 6993 6664  
Cooling Degree Days 0 0  
Month to date cooling degree days 0 0  
Year to date cooling degree days 0 0  
Moisture  
Dew Point 32 °F    
Average Humidity 68    
Maximum Humidity 96    
Minimum Humidity 39    
Precipitation  
Precipitation 0.02 in 0.12 in 1.55 in (2010)
Month to date precipitation 2.28 3.14  
Year to date precipitation 7.45 8.55  
Snow  
Snow T in 0.30 in 2.80 in (1961)
Month to date snowfall 15.7 11.2  
Since 1 July snowfall 78.9 61.9  
Snow Depth 9.00 in    
Sea Level Pressure  
Sea Level Pressure 30.17 in    
Wind  
Wind Speed 5 mph (North)    
Max Wind Speed 17 mph    
Max Gust Speed 19 mph    
Visibility 8 miles    
Events Fog , Rain    
T = Trace of Precipitation, MM = Missing Value Source: NWS Daily Summary

Daily Weather History Graph

Daily Weather History Graph

Search for Another Location

Airport or City:

Trip Planner

Search our weather history database for the weather conditions in past years. The results will help you decide how hot, cold, wet, or windy it might be!

Date:

Astronomy

Mar. 29, 2014 Rise Set
Actual Time 6:21 AM EDT 6:59 PM EDT
Civil Twilight 5:52 AM EDT 7:28 PM EDT
Nautical Twilight 5:17 AM EDT 8:03 PM EDT
Astronomical Twilight 4:41 AM EDT 8:39 PM EDT
Moon 5:31 AM EDT (3/29) 5:58 PM EDT (3/29)
Length of Visible Light 13h 36m
Length of Day
12h 37m
Waning Crescent, 2% of the Moon is Illuminated
Mar 29
Waning Crescent
Mar 30
New
Apr 7
First Quarter
Apr 15
Full
Apr 22
Last Quarter

Hourly Weather History & Observations

Time (EDT) Temp. Windchill Dew Point Humidity Pressure Visibility Wind Dir Wind Speed Gust Speed Precip Events Conditions
12:31 AM 39.0 °F - 37.9 °F 96% 29.94 in 3.0 mi Calm Calm - 0.00 in Rain Light Rain
12:53 AM 36.0 °F - 35.1 °F 97% 29.96 in 2.5 mi Calm Calm - 0.00 in Rain Light Rain
1:53 AM 41.0 °F 38.0 °F 39.0 °F 93% 29.99 in 3.0 mi WSW 4.6 mph - 0.00 in   Overcast
2:53 AM 41.0 °F 36.4 °F 39.0 °F 93% 30.02 in 4.0 mi WSW 6.9 mph - N/A   Mostly Cloudy
3:53 AM 39.9 °F 35.8 °F 37.9 °F 93% 30.04 in 5.0 mi West 5.8 mph - N/A   Mostly Cloudy
4:53 AM 34.0 °F - 32.0 °F 92% 30.09 in 3.0 mi Calm Calm - N/A   Scattered Clouds
5:00 AM 35.1 °F 31.0 °F 32.0 °F 89% 30.09 in 0.5 mi NW 4.6 mph - N/A Fog Fog
5:07 AM 37.9 °F 33.5 °F 35.1 °F 89% 30.09 in 2.5 mi West 5.8 mph - N/A   Clear
5:14 AM 37.9 °F 33.5 °F 36.0 °F 93% 30.10 in 3.0 mi NW 5.8 mph - N/A   Scattered Clouds
5:53 AM 39.0 °F 34.8 °F 36.0 °F 89% 30.13 in 8.0 mi NW 5.8 mph - N/A   Scattered Clouds
6:53 AM 39.0 °F 32.3 °F 34.0 °F 82% 30.18 in 10.0 mi NW 10.4 mph - N/A   Scattered Clouds
7:53 AM 37.9 °F 33.5 °F 32.0 °F 79% 30.22 in 10.0 mi NW 5.8 mph - N/A   Mostly Cloudy
8:53 AM 39.9 °F 32.9 °F 32.0 °F 73% 30.24 in 10.0 mi NNW 11.5 mph - N/A   Overcast
9:53 AM 43.0 °F 36.0 °F 30.9 °F 62% 30.26 in 10.0 mi North 13.8 mph - N/A   Mostly Cloudy
10:53 AM 45.0 °F 41.2 °F 30.0 °F 56% 30.27 in 10.0 mi North 6.9 mph - N/A   Overcast
11:53 AM 45.0 °F 39.7 °F 28.9 °F 53% 30.28 in 10.0 mi North 10.4 mph - N/A   Overcast
12:53 PM 46.9 °F - 28.9 °F 50% 30.26 in 10.0 mi North 5.8 mph - N/A   Overcast
1:53 PM 48.9 °F - 28.0 °F 44% 30.25 in 10.0 mi Variable 4.6 mph - N/A   Scattered Clouds
2:53 PM 48.0 °F - 28.0 °F 46% 30.23 in 10.0 mi NNE 8.1 mph - N/A   Mostly Cloudy
3:53 PM 50.0 °F - 27.0 °F 41% 30.23 in 10.0 mi East 3.5 mph - N/A   Overcast
4:53 PM 48.9 °F - 28.9 °F 46% 30.23 in 10.0 mi Calm Calm - N/A   Overcast
5:53 PM 46.9 °F - 28.9 °F 50% 30.22 in 10.0 mi NNE 8.1 mph - N/A   Overcast
6:53 PM 45.0 °F 41.2 °F 28.9 °F 53% 30.22 in 10.0 mi NNE 6.9 mph - N/A   Overcast
7:53 PM 41.0 °F 37.1 °F 33.1 °F 73% 30.24 in 10.0 mi SSE 5.8 mph - N/A   Overcast
8:53 PM 39.0 °F 35.7 °F 30.9 °F 73% 30.25 in 10.0 mi ESE 4.6 mph - N/A   Overcast
9:53 PM 39.9 °F 35.8 °F 30.9 °F 70% 30.25 in 10.0 mi NE 5.8 mph - N/A   Overcast
10:53 PM 39.0 °F 33.4 °F 28.0 °F 65% 30.23 in 10.0 mi NE 8.1 mph - N/A   Overcast
11:53 PM 39.0 °F 32.8 °F 27.0 °F 62% 30.22 in 10.0 mi NNE 9.2 mph - N/A   Overcast